星链-34816 (STARLINK-34816)

导读

STARLINK-34816是美国SpaceX星链互联网星座的第34816颗卫星,于2025年9月3日发射升空,属于Starlink v2.0 mini卫星平台,运行于近地轨道。星链星座旨在为全球提供高速低延迟宽带互联网服务,尤其覆盖偏远地区,该卫星采用平板设计搭载氪工质霍尔推进器,具备自主避撞能力,寿命末期将主动离轨坠入大气层烧毁,服务全球互联网接入。

Basic Information
目录编号:
65467
目录名称:
STARLINK-34816
国际标识:
2025-195K
轨道中心:
EARTH
卫星名称:
星链-34816
卫星全名:
星链-34816 (STARLINK-34816)
卫星状态:
在轨 (已飞行375 天)
发射日期:
2025-09-03 UTC
国别 :
美国 (US)
星等 :
--
This satellite is enrolled in the Space Conjunction Data Service (SCDS) and the current flight risk assessment level is: No High Risk
Orbit Information
数据来源 国际轨道数据
星历时间: 2026-09-12T05:00:12+0800
1天前
查看轨道信息
半长轴: 6848.835km
偏心率: 0.0001544
轨道倾角: 53.159°
近地点辐角 89.397°
升交点赤经 113.075°
平近点角 270.720°
近地点: 469.64km
远地点: 471.756km
周期: 94.012分钟
每日圈数: 15.317141
Detailed Information
固有亮度:
5
最大亮度:
2.5
卫星平台:
Starlink V1.0
覆盖范围:
全球
运营商:
太空探索技术公司
运营商所在国:
美国
制造商(研发单位):
太空探索技术公司
制造商所在国:
美国
使用方式:
暂无
Satellite Introduction
Starlink 计划是 SpaceX 推出的全球卫星互联网项目,通过发射低轨道卫星,为全球尤其是偏远地区提供高速、低延迟的互联网服务。自 2019 年起,Starlink 已部署数千颗卫星,旨在缩小全球数字鸿沟,推动互联网普及。该项目还为军事、航空等行业提供通信支持,带来广泛经济效益。
2D Orbit Map
3D Orbit Map
Orbit Altitude Analysis Chart
Orbit Inclination Analysis Chart
Orbit Comprehensive Analysis Chart
View Comprehensive Chart
Conjunction Data List
Event ID Objects TCA Miss Dist (km) Collision Risk Probability Collision Risk Index (CRI) Action
CDM_260914-061704-743606-546723
OBJECT Z (47436)
2026-09-14T
06:17:06+0000
2.721 km
极远距离
1.516822E-6 低风险 0.39
CDM_260914-005106-528306-546721
2026-09-14T
00:51:10+0000
2.834 km
极远距离
1.425278E-6 低风险 0.38
CDM_260911-134606-546706-922921
2026-09-11T
13:46:20+0000
2.847 km
极远距离
1.414742E-6 低风险 0.38
CDM_260914-223606-546706-949521
2026-09-14T
22:36:14+0000
2.957 km
极远距离
1.360669E-6 低风险 0.38
CDM_260914-130005-632106-546721
2026-09-14T
13:00:34+0000
2.928 km
极远距离
1.359042E-6 低风险 0.38
CDM_260913-111806-546706-974822
2026-09-13T
11:18:23+0000
2.375 km
极远距离
1.119073E-6 低风险 0.36
CDM_260914-215006-546706-880521
2026-09-14T
21:50:53+0000
2.508 km
极远距离
1.008154E-6 低风险 0.35
Miss Distance Evolution Trend with All Objects
Collision Probability Evolution Trend with All Objects